This is the latest recevied weather packets stored in our database for station/object KO6MEX-13. If no packets are shown the sender has not sent any weather packets the latest 10 day(s).
| Time | Temp. | Humidity | Pressure | Rain* | Wind** | Luminosity | Snow |
|---|---|---|---|---|---|---|---|
| 1777347684 | 13.33° C | 70% | 1021 hPa | 0 mm | - | 0 W/m² | - |
| 1777347381 | 13.33° C | 69% | 1021 hPa | 0 mm | - | 0 W/m² | - |
| 1777347076 | 13.33° C | 69% | 1020.7 hPa | 0 mm | - | 0 W/m² | - |
| 1777346772 | 13.33° C | 69% | 1020.7 hPa | 0 mm | - | 0 W/m² | - |
| 1777346469 | 13.33° C | 68% | 1020.8 hPa | 0 mm | - | 0 W/m² | - |
| 1777346166 | 13.33° C | 67% | 1020.7 hPa | 0 mm | - | 0 W/m² | - |
| 1777345863 | 13.33° C | 67% | 1020.8 hPa | 0 mm | - | 0 W/m² | - |
| 1777345561 | 13.89° C | 66% | 1020.7 hPa | 0 mm | - | 0 W/m² | - |
| 1777345257 | 13.89° C | 66% | 1020.9 hPa | 0 mm | - | 0 W/m² | - |
| 1777344954 | 13.89° C | 65% | 1020.9 hPa | 0 mm | - | 0 W/m² | - |
| 1777344649 | 13.89° C | 64% | 1020.7 hPa | 0 mm | - | 0 W/m² | - |
| 1777344346 | 14.44° C | 63% | 1020.9 hPa | 0 mm | - | 1 W/m² | - |
| 1777344044 | 14.44° C | 63% | 1020.4 hPa | 0 mm | - | 2 W/m² | - |
| 1777343741 | 15° C | 62% | 1020.4 hPa | 0 mm | - | 3 W/m² | - |
| 1777343438 | 15° C | 63% | 1020.2 hPa | 0 mm | - | 6 W/m² | - |
| 1777343136 | 15° C | 61% | 1020.4 hPa | 0 mm | - | 8 W/m² | - |
| 1777342833 | 15.56° C | 60% | 1020.2 hPa | 0 mm | - | 11 W/m² | - |
| 1777342530 | 15.56° C | 60% | 1020.4 hPa | 0 mm | - | 13 W/m² | - |
| 1777342227 | 15.56° C | 57% | 1020.3 hPa | 0 mm | - | 15 W/m² | - |
| 1777341923 | 16.11° C | 57% | 1019.9 hPa | 0 mm | - | 17 W/m² | - |
| 1777341620 | 16.11° C | 56% | 1020.3 hPa | 0 mm | - | 19 W/m² | - |
| 1777341315 | 16.67° C | 54% | 1020.2 hPa | 0 mm | - | 23 W/m² | - |
| 1777341013 | 16.67° C | 53% | 1020 hPa | 0 mm | - | 24 W/m² | - |
| 1777340710 | 17.22° C | 51% | 1020.1 hPa | 0 mm | - | 26 W/m² | - |
| 1777340409 | 18.33° C | 50% | 1020.1 hPa | 0 mm | - | 28 W/m² | - |
* Rain latest hour (hover to see other rain measurements)
** Current wind speed in m/s (hover to see current wind gust speed)